Year,Month,Day,Hour,Minute,Value (Times are PST for temperature in C)
2009,07,04,00,00,15.90
2009,07,04,00,01,15.80
2009,07,04,00,02,15.80
2009,07,04,00,03,15.80
2009,07,04,00,04,15.80
2009,07,04,00,05,15.70
2009,07,04,00,06,15.70
2009,07,04,00,07,15.70
2009,07,04,00,08,15.70
2009,07,04,00,09,15.70
2009,07,04,00,10,15.70
2009,07,04,00,11,15.60
2009,07,04,00,12,15.60
2009,07,04,00,13,15.60
2009,07,04,00,14,15.60
2009,07,04,00,15,15.60
2009,07,04,00,16,15.70
2009,07,04,00,17,15.70
2009,07,04,00,18,15.70
2009,07,04,00,19,15.70
2009,07,04,00,20,15.70
2009,07,04,00,21,15.70
2009,07,04,00,22,15.70
2009,07,04,00,23,15.70
2009,07,04,00,24,15.70
2009,07,04,00,25,15.70
2009,07,04,00,26,15.60
2009,07,04,00,27,15.60
2009,07,04,00,28,15.60
2009,07,04,00,29,15.50
2009,07,04,00,30,15.50
2009,07,04,00,31,15.50
2009,07,04,00,32,15.50
2009,07,04,00,33,15.50
2009,07,04,00,34,15.50
2009,07,04,00,35,15.50
2009,07,04,00,36,15.50
2009,07,04,00,37,15.50
2009,07,04,00,38,15.50
2009,07,04,00,39,15.50
2009,07,04,00,40,15.40
2009,07,04,00,41,15.40
2009,07,04,00,42,15.40
2009,07,04,00,43,15.30
2009,07,04,00,44,15.30
2009,07,04,00,45,15.30
2009,07,04,00,46,15.30
2009,07,04,00,47,15.30
2009,07,04,00,48,15.20
2009,07,04,00,49,15.20
2009,07,04,00,50,15.20
2009,07,04,00,51,15.20
2009,07,04,00,52,15.20
2009,07,04,00,53,15.20
2009,07,04,00,54,15.20
2009,07,04,00,55,15.20
2009,07,04,00,56,15.20
2009,07,04,00,57,15.20
2009,07,04,00,58,15.20
2009,07,04,00,59,15.20
2009,07,04,01,00,15.10
2009,07,04,01,01,15.00
2009,07,04,01,02,15.00
2009,07,04,01,03,15.00
2009,07,04,01,04,15.00
2009,07,04,01,05,15.00
2009,07,04,01,06,15.00
2009,07,04,01,07,15.00
2009,07,04,01,08,15.00
2009,07,04,01,09,15.00
2009,07,04,01,10,15.00
2009,07,04,01,11,15.00
2009,07,04,01,12,15.00
2009,07,04,01,13,15.00
2009,07,04,01,14,15.00
2009,07,04,01,15,15.00
2009,07,04,01,16,15.00
2009,07,04,01,17,14.90
2009,07,04,01,18,14.90
2009,07,04,01,19,14.90
2009,07,04,01,20,14.80
2009,07,04,01,21,14.80
2009,07,04,01,22,14.80
2009,07,04,01,23,14.70
2009,07,04,01,24,14.70
2009,07,04,01,25,14.70
2009,07,04,01,26,14.70
2009,07,04,01,27,14.70
2009,07,04,01,28,14.70
2009,07,04,01,29,14.70
2009,07,04,01,30,14.70
2009,07,04,01,31,14.70
2009,07,04,01,32,14.70
2009,07,04,01,33,14.70
2009,07,04,01,34,14.70
2009,07,04,01,35,14.70
2009,07,04,01,36,14.70
2009,07,04,01,37,14.70
2009,07,04,01,38,14.70
2009,07,04,01,39,14.70
2009,07,04,01,40,14.70
2009,07,04,01,41,14.60
2009,07,04,01,42,14.60
2009,07,04,01,43,14.60
2009,07,04,01,44,14.60
2009,07,04,01,45,14.60
2009,07,04,01,46,14.60
2009,07,04,01,47,14.60
2009,07,04,01,48,14.60
2009,07,04,01,49,14.60
2009,07,04,01,50,14.60
2009,07,04,01,51,14.50
2009,07,04,01,52,14.50
2009,07,04,01,53,14.60
2009,07,04,01,54,14.60
2009,07,04,01,55,14.60
2009,07,04,01,56,14.70
2009,07,04,01,57,14.70
2009,07,04,01,58,14.70
2009,07,04,01,59,14.70
2009,07,04,02,00,14.70
2009,07,04,02,01,14.70
2009,07,04,02,02,14.70
2009,07,04,02,03,14.60
2009,07,04,02,04,14.60
2009,07,04,02,05,14.50
2009,07,04,02,06,14.50
2009,07,04,02,07,14.40
2009,07,04,02,08,14.40
2009,07,04,02,09,14.40
2009,07,04,02,10,14.40
2009,07,04,02,11,14.50
2009,07,04,02,12,14.50
2009,07,04,02,13,14.60
2009,07,04,02,14,14.60
2009,07,04,02,15,14.70
2009,07,04,02,16,14.70
2009,07,04,02,17,14.80
2009,07,04,02,18,14.80
2009,07,04,02,19,14.90
2009,07,04,02,20,15.00
2009,07,04,02,21,15.00
2009,07,04,02,22,15.00
2009,07,04,02,23,15.00
2009,07,04,02,24,15.00
2009,07,04,02,25,15.00
2009,07,04,02,26,15.10
2009,07,04,02,27,15.10
2009,07,04,02,28,15.10
2009,07,04,02,29,15.20
2009,07,04,02,30,15.20
2009,07,04,02,31,15.20
2009,07,04,02,32,15.20
2009,07,04,02,33,15.20
2009,07,04,02,34,15.20
2009,07,04,02,35,15.20
2009,07,04,02,36,15.20
2009,07,04,02,37,15.30
2009,07,04,02,38,15.30
2009,07,04,02,39,15.40
2009,07,04,02,40,15.50
2009,07,04,02,41,15.60
2009,07,04,02,42,15.70
2009,07,04,02,43,15.80
2009,07,04,02,44,15.90
2009,07,04,02,45,15.90
2009,07,04,02,46,16.00
2009,07,04,02,47,16.00
2009,07,04,02,48,16.10
2009,07,04,02,49,16.10
2009,07,04,02,50,16.10
2009,07,04,02,51,16.10
2009,07,04,02,52,16.00
2009,07,04,02,53,16.00
2009,07,04,02,54,15.90
2009,07,04,02,55,15.90
2009,07,04,02,56,15.90
2009,07,04,02,57,15.80
2009,07,04,02,58,15.80
2009,07,04,02,59,15.80
2009,07,04,03,00,15.80
2009,07,04,03,01,15.70
2009,07,04,03,02,15.70
2009,07,04,03,03,15.60
2009,07,04,03,04,15.60
2009,07,04,03,05,15.60
2009,07,04,03,06,15.60
2009,07,04,03,07,15.50
2009,07,04,03,08,15.60
2009,07,04,03,09,15.60
2009,07,04,03,10,15.70
2009,07,04,03,11,15.70
2009,07,04,03,12,15.80
2009,07,04,03,13,15.90
2009,07,04,03,14,15.90
2009,07,04,03,15,15.90
2009,07,04,03,16,16.00
2009,07,04,03,17,16.00
2009,07,04,03,18,16.10
2009,07,04,03,19,16.10
2009,07,04,03,20,16.20
2009,07,04,03,21,16.20
2009,07,04,03,22,16.20
2009,07,04,03,23,16.20
2009,07,04,03,24,16.30
2009,07,04,03,25,16.30
2009,07,04,03,26,16.40
2009,07,04,03,27,16.40
2009,07,04,03,28,16.40
2009,07,04,03,29,16.40
2009,07,04,03,30,16.40
2009,07,04,03,31,16.40
2009,07,04,03,32,16.40
2009,07,04,03,33,16.40
2009,07,04,03,34,16.40
2009,07,04,03,35,16.30
2009,07,04,03,36,16.30
2009,07,04,03,37,16.30
2009,07,04,03,38,16.20
2009,07,04,03,39,16.20
2009,07,04,03,40,16.10
2009,07,04,03,41,16.10
2009,07,04,03,42,16.00
2009,07,04,03,43,15.90
2009,07,04,03,44,15.80
2009,07,04,03,45,15.80
2009,07,04,03,46,15.80
2009,07,04,03,47,15.70
2009,07,04,03,48,15.70
2009,07,04,03,49,15.60
2009,07,04,03,50,15.50
2009,07,04,03,51,15.50
2009,07,04,03,52,15.40
2009,07,04,03,53,15.40
2009,07,04,03,54,15.30
2009,07,04,03,55,15.30
2009,07,04,03,56,15.30
2009,07,04,03,57,15.20
2009,07,04,03,58,15.20
2009,07,04,03,59,15.10
2009,07,04,04,00,15.00
2009,07,04,04,01,15.00
2009,07,04,04,02,15.00
2009,07,04,04,03,15.00
2009,07,04,04,06,15.00
2009,07,04,04,07,15.00
2009,07,04,04,14,14.80
2009,07,04,04,16,14.70
2009,07,04,04,19,14.70
2009,07,04,04,20,14.70
2009,07,04,04,22,14.70
2009,07,04,04,23,14.70
2009,07,04,04,24,14.70
2009,07,04,04,25,14.60
2009,07,04,04,26,14.60
2009,07,04,04,28,14.50
2009,07,04,04,29,14.50
2009,07,04,04,30,14.40
2009,07,04,04,31,14.40
2009,07,04,04,32,14.30
2009,07,04,04,34,14.30
2009,07,04,04,35,14.20
2009,07,04,04,36,14.20
2009,07,04,04,37,14.20
2009,07,04,04,38,14.20
2009,07,04,04,39,14.20
2009,07,04,04,40,14.20
2009,07,04,04,41,14.20
2009,07,04,04,42,14.20
2009,07,04,04,43,14.20
2009,07,04,04,44,14.30
2009,07,04,04,45,14.30
2009,07,04,04,46,14.30
2009,07,04,04,47,14.30
2009,07,04,04,48,14.30
2009,07,04,04,49,14.30
2009,07,04,04,50,14.30
2009,07,04,04,51,14.30
2009,07,04,04,52,14.40
2009,07,04,04,53,14.40
2009,07,04,04,54,14.50
2009,07,04,04,55,14.50
2009,07,04,04,56,14.60
2009,07,04,04,57,14.60
2009,07,04,04,58,14.50
2009,07,04,04,59,14.50
2009,07,04,05,00,14.40
2009,07,04,05,01,14.40
2009,07,04,05,02,14.40
2009,07,04,05,03,14.40
2009,07,04,05,04,14.40
2009,07,04,05,05,14.40
2009,07,04,05,06,14.40
2009,07,04,05,07,14.40
2009,07,04,05,08,14.30
2009,07,04,05,09,14.30
2009,07,04,05,10,14.30
2009,07,04,05,11,14.30
2009,07,04,05,12,14.20
2009,07,04,05,13,14.20
2009,07,04,05,14,14.10
2009,07,04,05,15,14.10
2009,07,04,05,16,14.00
2009,07,04,05,17,13.90
2009,07,04,05,18,13.90
2009,07,04,05,19,13.90
2009,07,04,05,20,13.90
2009,07,04,05,21,13.90
2009,07,04,05,22,13.90
2009,07,04,05,23,13.80
2009,07,04,05,24,13.80
2009,07,04,05,25,13.80
2009,07,04,05,26,13.80
2009,07,04,05,27,13.80
2009,07,04,05,28,13.70
2009,07,04,05,29,13.70
2009,07,04,05,30,13.70
2009,07,04,05,31,13.70
2009,07,04,05,32,13.70
2009,07,04,05,33,13.70
2009,07,04,05,34,13.70
2009,07,04,05,35,13.70
2009,07,04,05,36,13.70
2009,07,04,05,37,13.70
2009,07,04,05,38,13.70
2009,07,04,05,39,13.70
2009,07,04,05,40,13.70
2009,07,04,05,41,13.70
2009,07,04,05,42,13.70
2009,07,04,05,43,13.70
2009,07,04,05,44,13.60
2009,07,04,05,45,13.60
2009,07,04,05,46,13.60
2009,07,04,05,47,13.60
2009,07,04,05,48,13.60
2009,07,04,05,49,13.60
2009,07,04,05,50,13.60
2009,07,04,05,51,13.60
2009,07,04,05,52,13.60
2009,07,04,05,53,13.60
2009,07,04,05,54,13.60
2009,07,04,05,55,13.60
2009,07,04,05,56,13.70
2009,07,04,05,57,13.70
2009,07,04,05,58,13.70
2009,07,04,05,59,13.70
2009,07,04,06,00,13.70
2009,07,04,06,01,13.80
2009,07,04,06,02,13.80
2009,07,04,06,03,13.90
2009,07,04,06,04,14.00
2009,07,04,06,05,14.10
2009,07,04,06,06,14.20
2009,07,04,06,07,14.40
2009,07,04,06,08,14.70
2009,07,04,06,09,14.90
2009,07,04,06,10,15.10
2009,07,04,06,11,15.40
2009,07,04,06,12,15.70
2009,07,04,06,13,15.80
2009,07,04,06,14,15.90
2009,07,04,06,15,16.10
2009,07,04,06,16,16.30
2009,07,04,06,17,16.50
2009,07,04,06,18,16.70
2009,07,04,06,19,16.80
2009,07,04,06,20,16.90
2009,07,04,06,21,17.10
2009,07,04,06,22,17.20
2009,07,04,06,23,17.30
2009,07,04,06,24,17.50
2009,07,04,06,25,17.60
2009,07,04,06,26,17.60
2009,07,04,06,27,17.80
2009,07,04,06,28,18.00
2009,07,04,06,29,18.10
2009,07,04,06,30,18.10
2009,07,04,06,31,18.20
2009,07,04,06,32,18.10
2009,07,04,06,33,18.10
2009,07,04,06,34,18.10
2009,07,04,06,35,18.10
2009,07,04,06,36,18.20
2009,07,04,06,37,18.30
2009,07,04,06,38,18.30
2009,07,04,06,39,18.40
2009,07,04,06,40,18.50
2009,07,04,06,41,18.60
2009,07,04,06,42,18.60
2009,07,04,06,43,18.70
2009,07,04,06,44,18.80
2009,07,04,06,45,18.80
2009,07,04,06,46,18.90
2009,07,04,06,47,18.90
2009,07,04,06,48,18.80
2009,07,04,06,49,18.80
2009,07,04,06,50,18.80
2009,07,04,06,51,18.80
2009,07,04,06,52,18.80
2009,07,04,06,53,18.80
2009,07,04,06,54,18.80
2009,07,04,06,55,18.80
2009,07,04,06,56,18.80
2009,07,04,06,57,18.80
2009,07,04,06,58,18.70
2009,07,04,06,59,18.70
2009,07,04,07,00,18.60
2009,07,04,07,01,18.60
2009,07,04,07,02,18.50
2009,07,04,07,03,18.50
2009,07,04,07,04,18.50
2009,07,04,07,05,18.50
2009,07,04,07,06,18.40
2009,07,04,07,07,18.40
2009,07,04,07,08,18.40
2009,07,04,07,09,18.50
2009,07,04,07,10,18.50
2009,07,04,07,11,18.60
2009,07,04,07,12,18.70
2009,07,04,07,13,18.70
2009,07,04,07,14,18.80
2009,07,04,07,15,18.90
2009,07,04,07,16,18.90
2009,07,04,07,17,19.00
2009,07,04,07,18,19.10
2009,07,04,07,19,19.10
2009,07,04,07,20,19.20
2009,07,04,07,21,19.20
2009,07,04,07,22,19.30
2009,07,04,07,23,19.40
2009,07,04,07,24,19.40
2009,07,04,07,25,19.40
2009,07,04,07,26,19.40
2009,07,04,07,27,19.50
2009,07,04,07,28,19.50
2009,07,04,07,29,19.60
2009,07,04,07,30,19.60
2009,07,04,07,31,19.60
2009,07,04,07,32,19.60
2009,07,04,07,33,19.60
2009,07,04,07,34,19.70
2009,07,04,07,35,19.70
2009,07,04,07,36,19.70
2009,07,04,07,37,19.70
2009,07,04,07,38,19.80
2009,07,04,07,39,19.80
2009,07,04,07,40,19.80
2009,07,04,07,41,19.90
2009,07,04,07,42,19.90
2009,07,04,07,43,19.90
2009,07,04,07,44,19.90
2009,07,04,07,45,19.90
2009,07,04,07,46,19.90
2009,07,04,07,47,20.00
2009,07,04,07,48,20.00
2009,07,04,07,49,20.00
2009,07,04,07,50,20.00
2009,07,04,07,51,20.00
2009,07,04,07,52,20.10
2009,07,04,07,53,20.10
2009,07,04,07,54,20.10
2009,07,04,07,55,20.10
2009,07,04,07,56,20.10
2009,07,04,07,57,20.10
2009,07,04,07,58,20.20
2009,07,04,07,59,20.20
2009,07,04,08,00,20.20
2009,07,04,08,01,20.30
2009,07,04,08,02,20.30
2009,07,04,08,03,20.30
2009,07,04,08,04,20.30
2009,07,04,08,05,20.30
2009,07,04,08,06,20.30
2009,07,04,08,07,20.30
2009,07,04,08,08,20.30
2009,07,04,08,09,20.40
2009,07,04,08,10,20.40
2009,07,04,08,11,20.40
2009,07,04,08,12,20.40
2009,07,04,08,13,20.50
2009,07,04,08,14,20.60
2009,07,04,08,15,20.60
2009,07,04,08,16,20.70
2009,07,04,08,17,20.80
2009,07,04,08,18,20.80
2009,07,04,08,19,20.80
2009,07,04,08,20,20.80
2009,07,04,08,21,20.90
2009,07,04,08,22,20.90
2009,07,04,08,23,20.90
2009,07,04,08,24,21.00
2009,07,04,08,25,21.00
2009,07,04,08,26,21.00
2009,07,04,08,27,21.10
2009,07,04,08,28,21.10
2009,07,04,08,29,21.10
2009,07,04,08,30,21.10
2009,07,04,08,31,21.20
2009,07,04,08,32,21.20
2009,07,04,08,33,21.20
2009,07,04,08,34,21.20
2009,07,04,08,35,21.20
2009,07,04,08,36,21.20
2009,07,04,08,37,21.20
2009,07,04,08,38,21.20
2009,07,04,08,39,21.20
2009,07,04,08,40,21.20
2009,07,04,08,41,21.20
2009,07,04,08,42,21.20
2009,07,04,08,43,21.20
2009,07,04,08,44,21.30
2009,07,04,08,45,21.30
2009,07,04,08,46,21.30
2009,07,04,08,47,21.40
2009,07,04,08,48,21.40
2009,07,04,08,49,21.40
2009,07,04,08,50,21.40
2009,07,04,08,51,21.50
2009,07,04,08,52,21.50
2009,07,04,08,53,21.50
2009,07,04,08,54,21.60
2009,07,04,08,55,21.60
2009,07,04,08,56,21.60
2009,07,04,08,57,21.60
2009,07,04,08,58,21.60
2009,07,04,08,59,21.60
2009,07,04,09,00,21.60
2009,07,04,09,01,21.70
2009,07,04,09,02,21.70
2009,07,04,09,03,21.70
2009,07,04,09,04,21.70
2009,07,04,09,05,21.70
2009,07,04,09,06,21.70
2009,07,04,09,07,21.70
2009,07,04,09,08,21.70
2009,07,04,09,09,21.80
2009,07,04,09,10,21.80
2009,07,04,09,11,21.80
2009,07,04,09,12,21.80
2009,07,04,09,13,21.80
2009,07,04,09,14,21.90
2009,07,04,09,15,21.90
2009,07,04,09,16,22.00
2009,07,04,09,17,22.10
2009,07,04,09,18,22.10
2009,07,04,09,19,22.10
2009,07,04,09,20,22.10
2009,07,04,09,21,22.10
2009,07,04,09,22,22.10
2009,07,04,09,23,22.10
2009,07,04,09,24,22.10
2009,07,04,09,25,22.10
2009,07,04,09,26,22.10
2009,07,04,09,27,22.20
2009,07,04,09,28,22.20
2009,07,04,09,29,22.20
2009,07,04,09,30,22.30
2009,07,04,09,31,22.30
2009,07,04,09,32,22.30
2009,07,04,09,33,22.30
2009,07,04,09,34,22.30
2009,07,04,09,35,22.40
2009,07,04,09,36,22.40
2009,07,04,09,37,22.50
2009,07,04,09,38,22.50
2009,07,04,09,39,22.50
2009,07,04,09,40,22.50
2009,07,04,09,41,22.50
2009,07,04,09,42,22.60
2009,07,04,09,43,22.60
2009,07,04,09,44,22.60
2009,07,04,09,45,22.70
2009,07,04,09,46,22.70
2009,07,04,09,47,22.70
2009,07,04,09,48,22.70
2009,07,04,09,49,22.70
2009,07,04,09,50,22.70
2009,07,04,09,51,22.70
2009,07,04,09,52,22.80
2009,07,04,09,53,22.80
2009,07,04,09,54,22.80
2009,07,04,09,55,22.80
2009,07,04,09,56,22.80
2009,07,04,09,57,22.80
2009,07,04,09,58,22.90
2009,07,04,09,59,22.90
2009,07,04,10,00,23.00
2009,07,04,10,01,23.00
2009,07,04,10,02,23.10
2009,07,04,10,03,23.20
2009,07,04,10,04,23.40
2009,07,04,10,05,23.50
2009,07,04,10,06,23.50
2009,07,04,10,07,23.60
2009,07,04,10,08,23.60
2009,07,04,10,09,23.50
2009,07,04,10,10,23.40
2009,07,04,10,11,23.30
2009,07,04,10,12,23.40
2009,07,04,10,13,23.50
2009,07,04,10,14,23.60
2009,07,04,10,15,23.60
2009,07,04,10,16,23.70
2009,07,04,10,17,23.80
2009,07,04,10,18,23.80
2009,07,04,10,19,23.80
2009,07,04,10,20,23.80
2009,07,04,10,21,23.80
2009,07,04,10,22,23.90
2009,07,04,10,23,23.90
2009,07,04,10,24,24.00
2009,07,04,10,25,24.00
2009,07,04,10,26,23.90
2009,07,04,10,27,23.90
2009,07,04,10,28,23.90
2009,07,04,10,29,24.00
2009,07,04,10,30,24.00
2009,07,04,10,31,24.00
2009,07,04,10,32,24.10
2009,07,04,10,33,24.10
2009,07,04,10,34,24.10
2009,07,04,10,35,24.10
2009,07,04,10,36,24.10
2009,07,04,10,37,24.10
2009,07,04,10,38,24.20
2009,07,04,10,39,24.30
2009,07,04,10,40,24.40
2009,07,04,10,41,24.50
2009,07,04,10,42,24.60
2009,07,04,10,43,24.70
2009,07,04,10,44,24.70
2009,07,04,10,45,24.80
2009,07,04,10,46,25.00
2009,07,04,10,47,25.00
2009,07,04,10,48,25.10
2009,07,04,10,49,25.20
2009,07,04,10,50,25.20
2009,07,04,10,51,25.20
2009,07,04,10,52,25.10
2009,07,04,10,53,25.10
2009,07,04,10,54,25.20
2009,07,04,10,55,25.20
2009,07,04,10,56,25.20
2009,07,04,10,57,25.10
2009,07,04,10,58,25.00
2009,07,04,10,59,24.90
2009,07,04,11,00,24.70
2009,07,04,11,01,24.60
2009,07,04,11,02,24.40
2009,07,04,11,03,24.30
2009,07,04,11,04,24.30
2009,07,04,11,05,24.30
2009,07,04,11,06,24.30
2009,07,04,11,07,24.40
2009,07,04,11,08,24.40
2009,07,04,11,09,24.40
2009,07,04,11,10,24.40
2009,07,04,11,11,24.30
2009,07,04,11,12,24.30
2009,07,04,11,13,24.20
2009,07,04,11,14,24.10
2009,07,04,11,15,24.10
2009,07,04,11,16,24.00
2009,07,04,11,17,24.00
2009,07,04,11,18,24.10
2009,07,04,11,19,24.10
2009,07,04,11,20,24.20
2009,07,04,11,21,24.20
2009,07,04,11,22,24.30
2009,07,04,11,23,24.40
2009,07,04,11,24,24.50
2009,07,04,11,25,24.40
2009,07,04,11,26,24.30
2009,07,04,11,27,24.20
2009,07,04,11,28,24.10
2009,07,04,11,29,24.10
2009,07,04,11,30,24.20
2009,07,04,11,31,24.20
2009,07,04,11,32,24.30
2009,07,04,11,33,24.40
2009,07,04,11,34,24.40
2009,07,04,11,35,24.50
2009,07,04,11,36,24.60
2009,07,04,11,37,24.70
2009,07,04,11,38,24.80
2009,07,04,11,39,24.90
2009,07,04,11,40,24.90
2009,07,04,11,41,25.00
2009,07,04,11,42,25.20
2009,07,04,11,43,25.30
2009,07,04,11,44,25.40
2009,07,04,11,45,25.50
2009,07,04,11,46,25.60
2009,07,04,11,47,25.60
2009,07,04,11,48,25.60
2009,07,04,11,49,25.60
2009,07,04,11,50,25.60
2009,07,04,11,51,25.50
2009,07,04,11,52,25.50
2009,07,04,11,53,25.50
2009,07,04,11,54,25.50
2009,07,04,11,55,25.50
2009,07,04,11,56,25.50
2009,07,04,11,57,25.50
2009,07,04,11,58,25.50
2009,07,04,11,59,25.60
2009,07,04,12,00,25.70
2009,07,04,12,01,25.70
2009,07,04,12,02,25.60
2009,07,04,12,03,25.70
2009,07,04,12,04,25.70
2009,07,04,12,05,25.70
2009,07,04,12,06,25.70
2009,07,04,12,07,25.60
2009,07,04,12,08,25.60
2009,07,04,12,09,25.70
2009,07,04,12,10,25.70
2009,07,04,12,11,25.70
2009,07,04,12,12,25.60
2009,07,04,12,13,25.60
2009,07,04,12,14,25.40
2009,07,04,12,15,25.40
2009,07,04,12,16,25.40
2009,07,04,12,17,25.40
2009,07,04,12,18,25.50
2009,07,04,12,19,25.50
2009,07,04,12,20,25.60
2009,07,04,12,21,25.60
2009,07,04,12,22,25.80
2009,07,04,12,23,25.90
2009,07,04,12,24,26.00
2009,07,04,12,25,26.20
2009,07,04,12,26,26.30
2009,07,04,12,27,26.30
2009,07,04,12,28,26.20
2009,07,04,12,29,26.20
2009,07,04,12,30,26.30
2009,07,04,12,31,26.40
2009,07,04,12,32,26.50
2009,07,04,12,33,26.60
2009,07,04,12,34,26.60
2009,07,04,12,35,26.60
2009,07,04,12,36,26.60
2009,07,04,12,37,26.40
2009,07,04,12,38,26.40
2009,07,04,12,39,26.30
2009,07,04,12,40,26.30
2009,07,04,12,41,26.30
2009,07,04,12,42,26.20
2009,07,04,12,43,26.20
2009,07,04,12,44,26.20
2009,07,04,12,45,26.20
2009,07,04,12,46,26.20
2009,07,04,12,47,26.10
2009,07,04,12,48,25.90
2009,07,04,12,49,25.90
2009,07,04,12,50,25.80
2009,07,04,12,51,25.90
2009,07,04,12,52,25.90
2009,07,04,12,53,26.00
2009,07,04,12,54,26.10
2009,07,04,12,55,26.10
2009,07,04,12,56,26.20
2009,07,04,12,57,26.30
2009,07,04,12,58,26.30
2009,07,04,12,59,26.30
2009,07,04,13,00,26.40
2009,07,04,13,01,26.40
2009,07,04,13,02,26.40
2009,07,04,13,03,26.40
2009,07,04,13,04,26.50
2009,07,04,13,05,26.50
2009,07,04,13,06,26.40
2009,07,04,13,07,26.40
2009,07,04,13,08,26.40
2009,07,04,13,09,26.30
2009,07,04,13,10,26.30
2009,07,04,13,11,26.30
2009,07,04,13,12,26.20
2009,07,04,13,13,26.20
2009,07,04,13,14,26.30
2009,07,04,13,15,26.30
2009,07,04,13,16,26.20
2009,07,04,13,17,26.20
2009,07,04,13,18,26.20
2009,07,04,13,19,26.30
2009,07,04,13,20,26.30
2009,07,04,13,21,26.30
2009,07,04,13,22,26.30
2009,07,04,13,23,26.40
2009,07,04,13,24,26.40
2009,07,04,13,25,26.50
2009,07,04,13,26,26.50
2009,07,04,13,27,26.50
2009,07,04,13,28,26.40
2009,07,04,13,29,26.40
2009,07,04,13,30,26.50
2009,07,04,13,31,26.60
2009,07,04,13,32,26.70
2009,07,04,13,33,26.70
2009,07,04,13,34,26.60
2009,07,04,13,35,26.60
2009,07,04,13,36,26.60
2009,07,04,13,37,26.60
2009,07,04,13,38,26.60
2009,07,04,13,39,26.60
2009,07,04,13,40,26.60
2009,07,04,13,41,26.50
2009,07,04,13,42,26.50
2009,07,04,13,43,26.50
2009,07,04,13,44,26.40
2009,07,04,13,45,26.40
2009,07,04,13,46,26.40
2009,07,04,13,47,26.50
2009,07,04,13,48,26.60
2009,07,04,13,49,26.60
2009,07,04,13,50,26.50
2009,07,04,13,51,26.60
2009,07,04,13,52,26.60
2009,07,04,13,53,26.80
2009,07,04,13,54,26.80
2009,07,04,13,55,26.90
2009,07,04,13,56,27.00
2009,07,04,13,57,27.00
2009,07,04,13,58,27.10
2009,07,04,13,59,27.20
2009,07,04,14,00,27.30
2009,07,04,14,01,27.30
2009,07,04,14,02,27.40
2009,07,04,14,03,27.40
2009,07,04,14,04,27.40
2009,07,04,14,05,27.40
2009,07,04,14,06,27.40
2009,07,04,14,07,27.40
2009,07,04,14,08,27.40
2009,07,04,14,09,27.40
2009,07,04,14,10,27.40
2009,07,04,14,11,27.40
2009,07,04,14,12,27.30
2009,07,04,14,13,27.30
2009,07,04,14,14,27.30
2009,07,04,14,15,27.40
2009,07,04,14,16,27.50
2009,07,04,14,17,27.60
2009,07,04,14,18,27.60
2009,07,04,14,19,27.60
2009,07,04,14,20,27.60
2009,07,04,14,21,27.60
2009,07,04,14,22,27.40
2009,07,04,14,23,27.40
2009,07,04,14,24,27.30
2009,07,04,14,25,27.20
2009,07,04,14,26,27.20
2009,07,04,14,27,27.20
2009,07,04,14,28,27.20
2009,07,04,14,29,27.20
2009,07,04,14,30,27.30
2009,07,04,14,31,27.40
2009,07,04,14,32,27.50
2009,07,04,14,33,27.50
2009,07,04,14,34,27.50
2009,07,04,14,35,27.40
2009,07,04,14,36,27.40
2009,07,04,14,37,27.40
2009,07,04,14,38,27.40
2009,07,04,14,39,27.40
2009,07,04,14,40,27.40
2009,07,04,14,41,27.30
2009,07,04,14,42,27.30
2009,07,04,14,43,27.30
2009,07,04,14,44,27.30
2009,07,04,14,45,27.30
2009,07,04,14,46,27.30
2009,07,04,14,47,27.40
2009,07,04,14,48,27.40
2009,07,04,14,49,27.40
2009,07,04,14,50,27.40
2009,07,04,14,51,27.30
2009,07,04,14,52,27.30
2009,07,04,14,53,27.30
2009,07,04,14,54,27.30
2009,07,04,14,55,27.40
2009,07,04,14,56,27.50
2009,07,04,14,57,27.70
2009,07,04,14,58,27.80
2009,07,04,14,59,27.80
2009,07,04,15,00,27.90
2009,07,04,15,01,27.90
2009,07,04,15,02,27.90
2009,07,04,15,03,28.00
2009,07,04,15,04,28.10
2009,07,04,15,05,28.20
2009,07,04,15,06,28.10
2009,07,04,15,07,28.10
2009,07,04,15,08,28.00
2009,07,04,15,09,27.90
2009,07,04,15,10,27.90
2009,07,04,15,11,27.90
2009,07,04,15,12,27.80
2009,07,04,15,13,27.80
2009,07,04,15,14,27.80
2009,07,04,15,15,27.90
2009,07,04,15,16,27.90
2009,07,04,15,17,27.90
2009,07,04,15,18,28.00
2009,07,04,15,19,28.10
2009,07,04,15,20,28.10
2009,07,04,15,21,28.10
2009,07,04,15,22,28.10
2009,07,04,15,23,28.10
2009,07,04,15,24,28.20
2009,07,04,15,25,28.20
2009,07,04,15,26,28.20
2009,07,04,15,27,28.10
2009,07,04,15,28,28.10
2009,07,04,15,29,28.20
2009,07,04,15,30,28.30
2009,07,04,15,31,28.30
2009,07,04,15,32,28.40
2009,07,04,15,33,28.50
2009,07,04,15,34,28.50
2009,07,04,15,35,28.60
2009,07,04,15,36,28.50
2009,07,04,15,37,28.50
2009,07,04,15,38,28.50
2009,07,04,15,39,28.40
2009,07,04,15,40,28.40
2009,07,04,15,41,28.40
2009,07,04,15,42,28.40
2009,07,04,15,43,28.60
2009,07,04,15,44,28.60
2009,07,04,15,45,28.70
2009,07,04,15,46,28.70
2009,07,04,15,47,28.80
2009,07,04,15,48,28.80
2009,07,04,15,49,28.80
2009,07,04,15,50,28.70
2009,07,04,15,51,28.60
2009,07,04,15,52,28.40
2009,07,04,15,53,28.30
2009,07,04,15,54,28.30
2009,07,04,15,55,28.40
2009,07,04,15,56,28.40
2009,07,04,15,57,28.50
2009,07,04,15,58,28.50
2009,07,04,15,59,28.60
2009,07,04,16,00,28.60
2009,07,04,16,01,28.60
2009,07,04,16,02,28.70
2009,07,04,16,03,28.70
2009,07,04,16,04,28.70
2009,07,04,16,05,28.70
2009,07,04,16,06,28.80
2009,07,04,16,07,28.80
2009,07,04,16,08,28.90
2009,07,04,16,09,28.90
2009,07,04,16,10,28.90
2009,07,04,16,11,28.90
2009,07,04,16,12,28.90
2009,07,04,16,13,28.80
2009,07,04,16,14,28.70
2009,07,04,16,15,28.50
2009,07,04,16,16,28.30
2009,07,04,16,17,28.10
2009,07,04,16,18,27.90
2009,07,04,16,19,27.90
2009,07,04,16,20,27.80
2009,07,04,16,21,27.70
2009,07,04,16,22,27.70
2009,07,04,16,23,27.60
2009,07,04,16,24,27.50
2009,07,04,16,25,27.30
2009,07,04,16,26,27.20
2009,07,04,16,27,27.20
2009,07,04,16,28,27.10
2009,07,04,16,29,27.10
2009,07,04,16,30,26.90
2009,07,04,16,31,26.90
2009,07,04,16,32,26.80
2009,07,04,16,33,26.80
2009,07,04,16,34,26.90
2009,07,04,16,35,26.90
2009,07,04,16,36,27.00
2009,07,04,16,37,27.00
2009,07,04,16,38,27.00
2009,07,04,16,39,27.00
2009,07,04,16,40,27.10
2009,07,04,16,41,27.10
2009,07,04,16,42,27.20
2009,07,04,16,43,27.30
2009,07,04,16,44,27.30
2009,07,04,16,45,27.40
2009,07,04,16,46,27.50
2009,07,04,16,47,27.70
2009,07,04,16,48,27.70
2009,07,04,16,49,27.50
2009,07,04,16,50,27.20
2009,07,04,16,51,27.00
2009,07,04,16,52,26.90
2009,07,04,16,53,26.80
2009,07,04,16,54,26.80
2009,07,04,16,55,26.70
2009,07,04,16,56,26.50
2009,07,04,16,57,26.50
2009,07,04,16,58,26.40
2009,07,04,16,59,26.40
2009,07,04,17,00,26.50
2009,07,04,17,01,26.50
2009,07,04,17,02,26.60
2009,07,04,17,03,26.50
2009,07,04,17,04,26.50
2009,07,04,17,05,26.40
2009,07,04,17,06,26.40
2009,07,04,17,07,26.40
2009,07,04,17,08,26.40
2009,07,04,17,09,26.40
2009,07,04,17,10,26.50
2009,07,04,17,11,26.60
2009,07,04,17,12,26.60
2009,07,04,17,13,26.60
2009,07,04,17,14,26.70
2009,07,04,17,15,26.60
2009,07,04,17,16,26.60
2009,07,04,17,17,26.40
2009,07,04,17,18,26.40
2009,07,04,17,19,26.40
2009,07,04,17,20,26.30
2009,07,04,17,21,26.30
2009,07,04,17,22,26.40
2009,07,04,17,23,26.40
2009,07,04,17,24,26.30
2009,07,04,17,25,26.20
2009,07,04,17,26,26.10
2009,07,04,17,27,26.00
2009,07,04,17,28,25.90
2009,07,04,17,29,25.90
2009,07,04,17,30,25.90
2009,07,04,17,31,25.90
2009,07,04,17,32,26.00
2009,07,04,17,33,26.10